Regional Weather Roundup
Issued by NWS

Home | Current Version | Previous Version | Graphics & Text | Print | Product List | Glossary On
Versions: 1 2 3 4 5 6 7 8 9 10 11 12 13 14 15 16 17 18 19 20 21 22 23 24 25 26 27 28 29 30 31 32 33 34 35 36 37 38 39 40 41 42 43 44 45 46 47 48 49 50
000
ASUS43 KLMK 231602
RWRKY
KENTUCKY REGIONAL WEATHER ROUNDUP
NATIONAL WEATHER SERVICE LOUISVILLE KY
1100 AM EST FRI FEB 23 2018

NOTE "FAIR" INDICATES FEW OR NO CLOUDS BELOW 12,000 FEET
WITH NO SIGNIFICANT WEATHER AND/OR OBSTRUCTIONS TO VISIBILITY.

KYZ001>023-026-027-061>063-070>075-231700-
WESTERN AND SOUTH CENTRAL KENTUCKY

CITY           SKY/WX    TMP DP  RH WIND       PRES   REMARKS
PADUCAH        LGT RAIN  56  53  90 W8        30.29R
HENDERSON      LGT RAIN  53  52  96 NW9       30.31R
OWENSBORO      LGT RAIN  61  60  97 W14       30.30R
HOPKINSVILLE   PTSUNNY   64  64 100 SW10      30.30F
BOWLING GREEN  CLOUDY    64  63  96 SW12      30.33R
GLASGOW        NOT AVBL
$$

KYZ024-025-028>034-038-045-046-053-231700-
NORTH CENTRAL KENTUCKY

CITY           SKY/WX    TMP DP  RH WIND       PRES   REMARKS
LOUISVILLE/SDF RAIN      64  61  90 SW14G22   30.27R
LOUISVILLE/LOU LGT RAIN  63  63 100 S10       30.28R
FORT KNOX      NOT AVBL
$$

KYZ035>037-039>044-047>052-055>060-089>105-231700-
NORTHEAST KENTUCKY

CITY           SKY/WX    TMP DP  RH WIND       PRES   REMARKS
LEXINGTON      LGT RAIN  63  60  90 SW15G23   30.32R
COVINGTON      CLOUDY    60  59  96 S14G23    30.21F
FRANKFORT      HVY RAIN  63  59  87 SW14      30.28R FOG
$$

KYZ054-064>069-076>088-106>120-231700-
SOUTHEAST KENTUCKY

CITY           SKY/WX    TMP DP  RH WIND       PRES   REMARKS
JACKSON        CLOUDY    70  59  68 SW10G21   30.33R
LONDON         CLOUDY    69  60  73 SW12G24   30.36R
SOMERSET       NOT AVBL
MIDDLESBORO    FAIR      71  60  68 S9G16     30.37S
MONTICELLO     NOT AVBL
$$





USA.gov is the U.S. government's official web portal to all federal, state and local government web resources and services.